Probability
0 0 0 0 0 0 0 0 0 0 0 0 0 0 0 0 0 0 0 0 0 0 0 0 0 0 0 0 0 0 0 0 0 0 0 0 0 0 0 0 0 0 0
0 0 0 0 0 0 0 0 0 0 0 0 0 0 0 0 0 0 0 0 0 0 0 0 0 0 0 0 0 0 0 0 0 0 0 0 0 0 0 0 0 0 0
0 0 0 0 0 0 0 0 0 0 0 0 0 0 0 0 0 0 0 0 0 0 0 0 0 0 0 0 0 0 0 0 0 0 0 0 0 0 0 0 0 0 0
0 0 0 0 0 0 0 0 0 0 0 0 0 0 0 0 0 0 0 0 0 0 0 0 0 0 0 0 0 0 0 0 0 0 0 0 0 0 0 0 0 0 0
0 0 0 0 0 0 0 0 0 0 0 0 0 0 0 0 0 0 0 0 0 0 0 0 0 0 0 0 0 0 0 0 0 0 0 0 0 0 0 0 0 0 0
0 0 0 0 0 0 0 0 0 0 0 0 0 0 0 0 0 0 0 0 0 0 0 0 0 0 0 0 0 0 0 0 0 0 0 0 0 0 0 0 0 0 0
0 0 0 0 0 0 0 0 0 0 0 0 0 0 0 0 0 0 0 0 0 0 0 0 0 0 0 0 0 0 0 0 0 0 0 0 0 0 0 0 0 0 0
0 0 0 0 0 0 0 0 0 0 0 0 0 0 0 0 0 0 0 0 0 0 0 0 0 0 0 0 0 0 0 0 0 0 0 0 0 0 0 0 0 0 0
0 0 0 0 0 0 0 0 0 0 0 0 0 0 0 0 0 0 0 0 0 0 0 0 0 0 0 0 0 0 0 0 0 0 0 0 0 0 0 0 0 0 0
0 0 0 0 0 0 0 0 0 0 0 0 0 0 0 0 0 0 0 0 0 0 0 0 0 0 0 0 0 0 0 0 0 0 0 0 0 0 0 0 0 0 0
0 0 0 0 0 0 0 0 0 0 0 0 0 0 0 0 0 0 0 0 0 0 0 0 0 0 0 0 0 0 0 0 0 0 0 0 0 0 0 0 0 0 0
0 0 0 0 0 0 0 0 0 0 0 0 0 0 0 0 0 0 0 0 0 0 0 0 0 0 0 0 0 0 0 0 0 0 0 0 0 0 0 0 0 0 0
0 0 0 0 0 0 0 0 0 0 0 0 0 0 0 0 0 0 0 0 0 0 0 0 0 0 0 0 0 0 0 0 0 0 0 0 0 0 0 0 0 0 0
0 0 0 0 0 0 0 0 0 0 0 0 0 0 0 0 0 0 0 0 0 0 0 0 0 0 0 0 0 0 0 0 0 0 0 0 0 0 0 0 0 0 0
0 0 0 0 0 0 0 0 0 0 0 0 0 0 0 0 0 0 0 0 0 0 0 0 0 0 0 0 0 0 0 0 0 0 0 0 0 0 0 0 0 0 0
0 0 0 0 0 0 0 0 0 0 0 0 0 0 0 0 0 0 0 0 0 0 0 0 0 0 0 0 0 0 0 0 0 0 0 0 0 0 0 0 0 0 0
0 0 0 0 0 0 0 0 0 0 0 0 0 0 0 0 0 0 0 0 0 0 0 0 0 0 0 0 0 0 0 0 0 0 0 0 0 0 0 0 0 0 0
0 0 0 0 0 0 0 0 0 0 0 0 0 0 0 0 0 0 0 0 0 0 0 0 0 0 0 0 0 0 0 0 0 0 0 0 0 0 0 0 0 0 0
0 0 0 0 0 0 0 0 0 0 0 0 0 0 0 0 0 0 0 0 0 0 0 0 0 0 0 0 0 0 0 0 0 0 0 0 0 0 0 0 0 0 0
0 0 0 0 0 0 0 0 0 0 0 0 0 0 0 0 0 0 0 0 0 0 0 0 0 0 0 0 0 0 0 0 0 0 0 0 0 0 0 0 0 0 0
0 0 0 0 0 0 0 0 0 0 0 0 0 0 0 0 0 0 0 0 0 0 0 0 0 0 0 0 0 0 0 0 0 0 0 0 0 0 0 0 0 0 0
0 0 0 0 0 0 0 0 0 0 0 0 0 0 0 0 0 0 0 0 0 0 0 0 0 0 0 0 0 0 0 0 0 0 0 0 0 0 0 0 0 0 0
0 0 0 0 0 0 0 0 0 0 0 0 0 0 0 0 0 0 0 0 0 0 0 0 0 0 0 0 0 0 0 0 0 0 0 0 0 0 0 0 0 0 0
0 0 0 0 0 0 0 0 0 0 0 0 0 0 0 0 0 0 0 0 0 0 0 0 0 0 0 0 0 0 0 0 0 0 0 0 0 0 0 0 0 0 0
0 0 0 0 0 0 0 0 0 0 0 0 0 0 0 0 0 0 0 0 0 0 0 0 0 0 0 0 0 0 0 0 0 0 0 0 0 0 0 0 0 0 0
0 0 0 0 0 0 0 0 0 0 0 0 0 0 0 0 0 0 0 0 0 0 0 0 0 0 0 0 0 0 0 0 0 0 0 0 0 0 0 0 0 0 0
Height
5832 5835 5838 5841 5843 5845 5847 5849 5850 5851 5853 5854 5854 5855 5855 5856 5856 5856 5856 5855 5855 5854 5854 5853 5852 5851 5849 5848 5846 5844 5842 5840 5837 5835 5832 5829 5826 5823 5819 5816 5812 5808 5803
5825 5829 5832 5834 5837 5839 5841 5843 5845 5846 5847 5849 5850 5850 5851 5851 5851 5851 5851 5851 5851 5850 5849 5849 5847 5846 5845 5843 5842 5840 5838 5836 5833 5831 5828 5825 5822 5819 5815 5811 5807 5803 5799
5817 5821 5824 5828 5830 5833 5835 5837 5839 5841 5842 5844 5845 5845 5846 5846 5846 5846 5846 5846 5846 5845 5845 5844 5843 5841 5840 5839 5837 5835 5833 5831 5829 5826 5824 5821 5817 5814 5810 5806 5802 5798 5794
5809 5813 5817 5821 5824 5826 5829 5831 5833 5835 5837 5838 5839 5840 5840 5841 5841 5841 5841 5841 5841 5840 5839 5839 5838 5836 5835 5833 5832 5830 5829 5827 5824 5822 5819 5816 5813 5809 5805 5801 5797 5793 5788
5801 5805 5809 5813 5816 5819 5822 5825 5827 5829 5831 5832 5833 5834 5834 5835 5836 5836 5836 5836 5836 5835 5834 5833 5832 5831 5829 5828 5826 5825 5823 5822 5819 5817 5814 5811 5807 5804 5800 5796 5792 5787 5783
5792 5797 5801 5805 5808 5812 5815 5817 5820 5822 5823 5825 5826 5827 5828 5829 5829 5830 5830 5829 5829 5829 5828 5827 5826 5825 5824 5822 5821 5819 5818 5816 5813 5811 5808 5805 5801 5798 5794 5790 5786 5781 5777
5783 5788 5792 5796 5800 5804 5807 5809 5812 5814 5816 5817 5819 5820 5821 5822 5823 5823 5823 5823 5823 5822 5822 5821 5820 5819 5817 5816 5815 5813 5811 5809 5807 5805 5802 5799 5795 5792 5788 5784 5780 5775 5771
5774 5779 5783 5788 5792 5795 5798 5801 5803 5806 5808 5810 5811 5812 5813 5815 5815 5816 5816 5816 5816 5815 5815 5814 5813 5812 5811 5809 5808 5806 5804 5803 5800 5798 5795 5792 5789 5785 5781 5778 5773 5769 5765
5765 5770 5775 5778 5782 5786 5789 5792 5795 5797 5800 5802 5803 5804 5806 5807 5808 5808 5808 5808 5808 5808 5807 5807 5806 5805 5804 5802 5801 5799 5797 5795 5793 5791 5788 5785 5782 5778 5775 5771 5767 5763 5758
5756 5761 5765 5769 5773 5776 5780 5783 5786 5788 5790 5792 5794 5796 5797 5798 5799 5800 5801 5800 5800 5799 5799 5799 5798 5797 5796 5795 5793 5792 5790 5788 5786 5783 5781 5778 5775 5771 5768 5764 5760 5756 5752
5746 5751 5755 5759 5763 5766 5770 5773 5776 5778 5781 5783 5785 5786 5787 5789 5790 5790 5791 5792 5792 5791 5791 5790 5789 5788 5788 5786 5785 5784 5782 5780 5778 5776 5773 5770 5767 5764 5760 5757 5753 5749 5744
5736 5740 5745 5749 5752 5756 5760 5763 5766 5768 5771 5773 5775 5776 5778 5779 5780 5781 5782 5782 5782 5782 5782 5781 5780 5780 5779 5778 5777 5775 5774 5772 5770 5767 5765 5762 5759 5756 5752 5749 5745 5741 5737
5725 5730 5734 5738 5742 5746 5749 5752 5755 5758 5760 5762 5764 5765 5767 5769 5770 5771 5771 5772 5772 5773 5772 5772 5771 5770 5770 5769 5768 5767 5765 5763 5761 5759 5756 5754 5751 5748 5744 5741 5737 5733 5729
5714 5718 5723 5727 5731 5735 5738 5741 5743 5746 5748 5751 5752 5754 5755 5757 5758 5759 5760 5761 5761 5762 5762 5762 5761 5760 5760 5759 5758 5757 5755 5754 5752 5750 5747 5745 5742 5739 5736 5732 5729 5725 5721
5702 5706 5710 5715 5719 5723 5726 5729 5731 5734 5737 5739 5740 5742 5743 5745 5746 5747 5749 5749 5750 5750 5751 5751 5751 5750 5750 5749 5748 5747 5746 5744 5742 5740 5738 5736 5733 5730 5727 5724 5720 5717 5713
5691 5694 5699 5703 5707 5711 5714 5717 5719 5722 5724 5726 5728 5730 5732 5733 5734 5735 5737 5738 5739 5739 5740 5740 5740 5739 5739 5738 5737 5736 5735 5734 5732 5730 5728 5726 5723 5721 5718 5715 5712 5708 5705
5680 5684 5687 5691 5695 5699 5702 5704 5707 5709 5712 5714 5716 5717 5720 5721 5722 5723 5724 5725 5726 5727 5728 5729 5728 5728 5728 5727 5727 5726 5725 5724 5722 5720 5718 5716 5714 5712 5709 5706 5702 5699 5696
5669 5673 5676 5680 5683 5686 5689 5692 5694 5696 5699 5701 5703 5705 5706 5708 5709 5711 5711 5712 5713 5714 5715 5716 5716 5716 5716 5716 5716 5715 5714 5713 5712 5710 5708 5706 5704 5702 5699 5696 5693 5690 5687
5660 5663 5666 5669 5672 5674 5677 5679 5681 5683 5685 5688 5690 5692 5693 5695 5696 5697 5698 5699 5700 5701 5702 5703 5704 5704 5705 5705 5705 5704 5703 5702 5701 5699 5698 5696 5694 5691 5689 5686 5684 5681 5678
5649 5652 5654 5657 5659 5661 5663 5666 5668 5670 5673 5675 5677 5679 5680 5682 5683 5684 5685 5686 5687 5689 5690 5691 5692 5693 5693 5693 5693 5693 5693 5692 5691 5689 5687 5685 5684 5681 5679 5677 5674 5672 5670
5638 5640 5642 5644 5647 5649 5651 5653 5655 5658 5660 5662 5664 5665 5667 5668 5669 5671 5672 5674 5675 5676 5677 5679 5680 5681 5682 5682 5682 5682 5681 5680 5679 5678 5676 5675 5673 5671 5669 5667 5665 5663 5660
5627 5628 5630 5632 5634 5636 5638 5640 5643 5645 5647 5649 5651 5653 5654 5655 5656 5658 5660 5661 5662 5664 5665 5667 5668 5669 5670 5670 5670 5670 5670 5670 5669 5668 5666 5664 5663 5661 5658 5657 5655 5653 5651
5617 5618 5619 5620 5622 5624 5626 5628 5630 5633 5635 5636 5638 5640 5641 5642 5644 5645 5646 5647 5649 5650 5653 5655 5656 5657 5658 5659 5659 5659 5659 5658 5658 5657 5655 5654 5652 5651 5649 5647 5645 5644 5642
5606 5607 5608 5609 5611 5613 5614 5616 5618 5620 5622 5624 5625 5627 5629 5630 5631 5633 5634 5634 5636 5638 5641 5643 5644 5645 5646 5647 5647 5648 5648 5647 5646 5645 5644 5644 5642 5641 5639 5637 5636 5635 5633
5595 5596 5597 5598 5599 5601 5602 5604 5605 5607 5609 5611 5613 5615 5616 5618 5619 5620 5621 5623 5625 5627 5629 5630 5631 5633 5634 5635 5636 5636 5636 5636 5635 5635 5634 5633 5631 5630 5629 5628 5626 5625 5624
5584 5585 5585 5586 5587 5588 5590 5591 5593 5595 5597 5599 5601 5602 5604 5605 5606 5607 5609 5611 5613 5615 5616 5618 5619 5621 5622 5623 5623 5624 5625 5624 5624 5624 5623 5622 5621 5620 5619 5618 5617 5616 5615
Wind_Speed
37 35 33 32 31 30 29 27 26 25 25 24 23 23 23 22 22 22 22 22 22 22 22 22 22 22 23 23 24 24 24 24 24 25 26 26 27 28 28 30 31 32 33
39 38 36 34 33 32 31 29 28 27 26 25 25 24 24 24 24 24 23 23 23 23 23 23 24 24 24 25 25 25 25 25 25 26 26 27 28 29 30 31 32 34 35
42 40 38 37 35 34 33 31 30 29 28 27 27 26 26 26 26 25 25 25 25 24 25 25 25 26 26 26 26 26 26 26 26 27 27 28 30 31 32 33 34 35 35
44 43 41 39 37 36 34 33 31 31 30 29 29 28 28 28 27 27 27 27 27 27 27 27 27 28 28 28 28 27 27 27 28 28 29 30 31 32 32 33 34 35 36
46 44 42 40 39 38 36 35 33 32 32 31 30 30 30 29 29 29 29 29 29 29 29 29 29 29 29 29 29 28 28 28 29 29 30 31 32 33 34 34 35 36 37
49 47 44 42 41 39 38 37 36 35 34 33 32 32 32 31 31 31 31 31 32 31 31 31 31 30 30 30 30 30 29 30 30 31 31 32 33 34 35 35 36 37 37
50 48 45 44 42 41 40 39 38 37 36 35 35 34 34 34 34 33 32 33 33 33 33 32 32 32 31 31 31 31 31 31 31 32 32 33 34 35 35 36 36 37 38
52 49 48 46 45 44 43 42 41 39 39 37 37 37 36 35 35 34 34 34 33 33 33 33 33 33 33 32 32 31 31 32 33 33 33 34 34 35 35 36 36 37 39
51 49 48 47 47 46 45 44 43 42 41 40 39 39 38 37 36 35 35 34 34 34 35 35 34 34 34 33 32 32 33 34 34 34 34 35 35 36 36 37 37 38 40
49 49 49 49 49 47 46 46 45 44 44 42 41 40 39 39 38 37 36 35 35 36 36 36 36 35 34 34 34 34 34 35 34 34 35 36 37 37 37 38 39 40 41
50 49 51 50 50 49 48 48 47 45 45 44 42 41 41 41 40 39 38 37 37 37 37 37 36 36 36 35 35 35 35 36 35 36 36 37 38 38 39 39 40 40 41
52 51 51 51 51 50 50 50 49 47 46 45 44 44 44 43 42 41 39 39 39 39 39 37 37 37 38 37 36 36 37 37 37 37 37 38 38 38 39 40 40 41 41
52 51 52 52 51 50 50 50 51 49 49 48 46 46 46 45 45 43 41 41 41 41 40 39 39 38 38 38 38 38 38 38 37 37 38 38 39 39 40 41 41 41 40
52 51 52 51 52 52 51 51 51 51 51 50 49 48 47 47 46 45 44 44 43 41 40 40 39 39 39 40 40 39 38 38 38 38 39 39 39 40 41 41 41 41 40
51 51 52 52 52 52 51 50 49 50 51 51 50 50 48 47 47 46 45 45 44 42 41 41 40 40 40 40 40 39 39 39 39 39 39 39 40 40 41 41 41 41 40
49 50 50 50 51 50 50 49 49 49 50 49 48 47 46 46 47 46 46 46 46 45 44 43 42 42 42 41 41 40 40 40 40 40 40 40 40 41 41 42 42 41 40
46 47 48 48 49 49 49 48 48 48 48 48 48 47 46 46 47 46 46 47 47 47 46 45 44 43 43 42 42 42 42 41 41 41 41 41 41 41 42 42 42 41 40
42 43 45 45 46 47 47 47 47 48 49 49 48 47 47 47 47 47 47 48 48 47 47 46 45 44 43 43 43 43 42 41 42 42 42 42 42 42 42 42 42 41 39
41 42 42 44 45 46 46 46 47 47 48 49 49 48 48 48 48 48 49 48 48 47 47 46 46 45 44 43 43 42 42 42 42 42 43 43 42 42 42 41 41 39 37
39 40 42 44 46 47 46 46 46 47 48 48 48 49 49 49 49 49 49 49 49 47 46 45 44 44 45 44 43 43 43 43 43 43 43 43 43 42 41 41 40 38 36
38 39 41 44 46 46 46 46 47 47 48 49 49 48 49 49 48 48 48 47 48 47 45 44 43 44 44 44 43 43 43 43 43 43 42 42 41 41 40 40 39 37 35
36 38 39 42 44 45 45 45 46 46 47 48 48 48 47 47 47 47 46 46 47 46 45 45 44 44 45 45 44 44 44 44 44 43 42 42 41 40 39 39 38 36 35
34 36 39 41 42 43 44 45 45 46 45 46 47 47 46 46 46 46 46 47 47 46 46 45 44 44 45 45 44 43 43 43 43 43 42 42 40 39 38 38 37 35 34
35 35 37 39 41 42 43 44 45 45 44 44 45 45 45 45 45 46 45 45 46 45 45 45 44 44 45 43 42 43 43 43 42 42 42 41 40 39 38 37 36 35 33
36 36 38 40 42 43 45 45 45 45 45 45 44 45 46 46 46 46 45 44 44 44 44 44 44 45 44 44 43 44 43 43 42 42 41 40 39 38 37 36 36 34 33
37 37 38 39 41 43 44 45 46 46 46 45 45 45 45 46 46 46 46 45 45 45 45 45 44 44 44 44 43 43 43 42 42 41 40 39 39 38 37 36 36 34 33
Wind_Direction
237 238 240 241 242 243 243 245 247 249 251 252 254 257 258 260 261 263 266 269 272 275 279 282 286 290 294 298 302 305 307 310 311 314 315 317 319 320 321 321 322 322 323
236 238 239 240 242 242 243 244 247 249 251 252 254 256 257 259 261 263 265 268 271 275 278 281 284 288 292 295 299 302 304 306 309 312 314 316 317 318 318 319 320 320 321
235 236 237 239 240 242 243 245 247 249 251 253 255 257 258 260 261 263 265 268 271 274 277 280 284 287 290 294 297 299 301 303 306 309 312 313 314 316 316 317 318 319 319
236 236 237 238 239 241 243 245 247 249 251 253 254 256 258 260 262 263 265 268 271 274 277 281 283 286 288 291 294 297 299 301 304 306 309 311 312 313 315 316 316 318 318
235 235 236 237 239 240 242 245 247 249 251 253 254 256 258 260 262 263 265 268 271 273 277 280 283 286 288 290 293 295 297 300 301 304 307 310 311 311 314 314 315 316 316
234 234 233 235 238 241 243 245 247 249 250 252 254 256 258 260 262 264 267 269 271 273 276 279 282 285 287 288 291 293 295 298 300 302 305 307 308 310 312 312 313 314 314
233 233 233 236 238 241 243 245 246 248 250 251 253 256 258 261 263 265 267 271 272 274 276 279 281 283 286 288 289 291 293 296 299 301 303 305 306 308 309 310 311 312 313
233 233 234 237 238 240 243 244 246 248 250 251 254 256 258 261 263 265 268 270 271 274 276 278 279 281 284 287 288 289 292 295 297 299 301 303 304 306 307 308 309 309 310
233 234 235 236 238 240 243 245 247 249 251 252 255 258 259 261 264 265 267 269 271 273 275 277 278 281 283 285 285 287 290 293 294 297 299 300 301 303 304 305 307 307 308
232 234 235 236 238 240 243 245 247 249 250 252 255 257 260 261 263 264 266 268 270 272 275 276 277 279 281 283 284 285 288 290 291 295 297 298 299 300 301 303 305 306 307
232 234 235 236 239 240 243 246 247 248 251 253 255 257 259 262 263 264 266 267 269 272 274 275 275 276 278 281 283 284 286 287 289 292 294 295 296 298 299 301 303 305 306
233 236 238 238 240 241 243 245 247 248 250 252 254 257 260 261 262 263 265 267 268 271 274 273 274 276 278 279 281 282 283 285 286 289 291 293 294 296 297 300 302 303 305
236 237 239 240 242 242 243 245 246 248 250 252 255 258 260 260 261 261 264 266 268 271 273 272 274 276 277 277 279 280 282 283 284 286 289 290 293 294 296 299 301 302 304
236 238 239 241 242 243 244 246 248 248 250 252 254 257 259 258 259 261 263 266 267 269 270 271 273 274 274 275 278 279 279 281 283 285 286 288 291 293 295 297 299 301 303
238 239 240 240 241 242 243 246 248 250 252 253 255 257 259 259 260 261 263 264 266 267 268 269 271 273 273 274 276 276 278 280 281 283 285 287 289 291 293 295 297 299 301
237 237 238 239 240 240 243 245 248 252 253 254 256 258 258 258 261 262 263 264 265 266 267 268 269 270 272 271 272 273 276 279 280 281 283 286 288 290 292 294 296 297 299
238 238 238 239 240 241 244 246 248 250 252 254 255 258 259 260 262 262 264 264 265 266 266 267 266 269 269 269 270 272 274 277 279 280 282 284 287 289 291 294 295 296 297
240 242 243 242 242 244 245 247 249 251 253 255 257 258 261 262 262 262 262 264 264 264 265 265 264 266 267 267 269 271 274 276 278 280 282 284 287 289 292 293 294 295 295
244 246 247 247 246 247 248 250 251 252 254 255 257 258 259 261 262 262 262 263 263 263 264 264 264 265 265 267 269 272 274 276 279 280 281 284 286 289 291 291 292 293 294
246 248 248 249 248 248 248 250 250 252 254 255 256 257 259 261 262 262 263 262 262 263 263 262 262 263 265 267 270 272 274 276 279 281 281 283 285 287 289 290 291 291 291
246 247 247 248 248 248 249 249 251 253 253 254 255 257 259 259 260 260 261 261 262 262 260 260 261 263 265 267 270 271 273 275 279 280 281 283 285 286 288 289 289 290 290
245 247 248 249 248 248 248 249 250 252 253 253 254 256 257 257 257 258 258 260 260 259 258 258 260 262 264 267 269 270 272 275 277 279 281 282 284 285 287 288 288 288 289
248 250 251 251 249 249 249 249 250 252 253 254 255 255 256 257 257 257 259 259 259 257 257 258 261 263 264 267 268 270 272 275 276 278 280 281 283 285 286 287 287 287 287
252 253 251 250 250 251 251 250 251 252 253 254 255 255 256 257 258 258 259 258 257 256 257 259 262 263 265 266 268 270 272 274 275 277 279 280 281 283 285 285 285 285 284
253 254 253 253 253 253 253 252 251 251 252 254 255 256 256 257 258 257 256 256 256 255 257 259 261 262 264 266 268 269 272 273 274 276 278 279 281 282 282 283 283 283 282
256 256 256 256 255 254 253 253 251 252 253 254 254 254 254 254 255 255 255 255 256 256 257 259 262 263 264 265 267 269 270 271 274 276 277 278 279 280 281 282 282 281 281